Time,TemperatureF,DewpointF,PressureIn,WindDirection,WindDirectionDegrees,WindSpeedMPH,WindSpeedGustMPH,Humidity,HourlyPrecipIn,Conditions,Clouds,dailyrainin,SoftwareType,DateUTC
2013-04-17 00:00:00,51.4,25.1,29.98,North,0,8.9,12.3,36,0.00,,,0.00,WUHU21623XXSP,2013-04-17 07:00:00,
2013-04-17 00:05:00,51.2,24.9,29.98,North,0,7.4,14.8,36,0.00,,,0.00,WUHU21623XXSP,2013-04-17 07:05:00,
2013-04-17 00:10:00,51.2,25.6,29.98,NNE,22,8.7,14.8,37,0.00,,,0.00,WUHU21623XXSP,2013-04-17 07:10:00,
2013-04-17 00:15:00,51.2,24.9,29.98,NNE,22,6.9,13.0,36,0.00,,,0.00,WUHU21623XXSP,2013-04-17 07:15:00,
2013-04-17 00:20:00,51.2,25.6,29.98,North,0,12.1,13.0,37,0.00,,,0.00,WUHU21623XXSP,2013-04-17 07:20:00,
2013-04-17 00:25:00,50.9,25.3,29.98,North,0,10.7,17.0,37,0.00,,,0.00,WUHU21623XXSP,2013-04-17 07:25:00,
2013-04-17 00:30:00,50.9,24.7,29.98,NNE,22,4.0,17.0,36,0.00,,,0.00,WUHU21623XXSP,2013-04-17 07:30:00,
2013-04-17 00:35:00,50.7,24.5,29.98,North,0,13.6,15.2,36,0.00,,,0.00,WUHU21623XXSP,2013-04-17 07:35:00,
2013-04-17 00:40:00,50.5,25.0,29.98,North,0,16.1,16.1,37,0.00,,,0.00,WUHU21623XXSP,2013-04-17 07:40:00,
2013-04-17 00:45:00,50.5,25.0,29.99,NNE,22,10.5,16.1,37,0.00,,,0.00,WUHU21623XXSP,2013-04-17 07:45:00,
2013-04-17 00:50:00,50.5,25.0,29.99,North,0,16.6,18.1,37,0.00,,,0.00,WUHU21623XXSP,2013-04-17 07:50:00,
2013-04-17 00:55:00,50.5,25.0,29.99,North,0,12.5,18.1,37,0.00,,,0.00,WUHU21623XXSP,2013-04-17 07:55:00,
2013-04-17 01:00:00,50.5,25.0,29.99,North,0,15.0,17.9,37,0.00,,,0.00,WUHU21623XXSP,2013-04-17 08:00:00,
2013-04-17 01:06:00,50.5,25.6,29.99,NNW,337,13.6,17.9,38,0.00,,,0.00,WUHU21623XXSP,2013-04-17 08:06:00,
2013-04-17 01:11:00,50.5,25.6,30.00,North,0,13.4,19.5,38,0.00,,,0.00,WUHU21623XXSP,2013-04-17 08:11:00,
2013-04-17 01:16:00,50.5,25.6,30.00,NNW,337,11.9,21.5,38,0.00,,,0.00,WUHU21623XXSP,2013-04-17 08:16:00,
2013-04-17 01:21:00,50.7,25.8,30.00,NNW,337,21.0,26.6,38,0.00,,,0.00,WUHU21623XXSP,2013-04-17 08:21:00,
2013-04-17 01:26:00,50.9,26.0,30.00,North,0,12.8,26.6,38,0.00,,,0.00,WUHU21623XXSP,2013-04-17 08:26:00,
2013-04-17 01:31:00,51.2,26.2,30.00,North,353,17.1,26.8,38,0.00,,,0.00,WUHU21623XXSP,2013-04-17 08:31:00,
2013-04-17 01:36:00,51.2,26.2,30.00,North,0,11.2,26.8,38,0.00,,,0.00,WUHU21623XXSP,2013-04-17 08:36:00,
2013-04-17 01:41:00,51.2,26.2,30.00,North,0,15.7,21.7,38,0.00,,,0.00,WUHU21623XXSP,2013-04-17 08:41:00,
2013-04-17 01:46:00,51.2,26.2,30.00,NNW,337,12.3,21.7,38,0.00,,,0.00,WUHU21623XXSP,2013-04-17 08:46:00,
2013-04-17 01:51:00,51.2,26.2,30.00,North,0,13.4,22.1,38,0.00,,,0.00,WUHU21623XXSP,2013-04-17 08:51:00,
2013-04-17 01:56:00,51.2,26.2,30.00,NNW,337,13.0,22.1,38,0.00,,,0.00,WUHU21623XXSP,2013-04-17 08:56:00,
2013-04-17 02:01:00,51.2,26.2,30.00,North,0,20.8,21.7,38,0.00,,,0.00,WUHU21623XXSP,2013-04-17 09:01:00,
2013-04-17 02:06:00,51.1,26.2,30.00,North,0,13.6,26.4,38,0.00,,,0.00,WUHU21623XXSP,2013-04-17 09:06:00,
2013-04-17 02:11:00,50.9,26.0,30.00,North,0,10.3,26.4,38,0.00,,,0.00,WUHU21623XXSP,2013-04-17 09:11:00,
2013-04-17 02:16:00,50.9,26.0,30.00,North,0,13.4,21.3,38,0.00,,,0.00,WUHU21623XXSP,2013-04-17 09:16:00,
2013-04-17 02:21:00,50.9,26.0,30.00,North,0,15.9,18.8,38,0.00,,,0.00,WUHU21623XXSP,2013-04-17 09:21:00,
2013-04-17 02:26:00,50.9,26.0,30.00,North,353,15.9,23.9,38,0.00,,,0.00,WUHU21623XXSP,2013-04-17 09:26:00,
2013-04-17 02:31:00,50.9,26.6,30.00,North,0,12.1,23.9,39,0.00,,,0.00,WUHU21623XXSP,2013-04-17 09:31:00,
2013-04-17 02:36:00,50.7,26.4,30.00,North,0,15.0,20.6,39,0.00,,,0.00,WUHU21623XXSP,2013-04-17 09:36:00,
2013-04-17 02:41:00,50.7,26.4,30.00,North,0,13.6,20.6,39,0.00,,,0.00,WUHU21623XXSP,2013-04-17 09:41:00,
2013-04-17 02:46:00,50.7,26.4,29.99,NNE,22,11.0,25.3,39,0.00,,,0.00,WUHU21623XXSP,2013-04-17 09:46:00,
2013-04-17 02:51:00,50.7,26.4,30.00,North,0,11.6,25.3,39,0.00,,,0.00,WUHU21623XXSP,2013-04-17 09:51:00,
2013-04-17 02:56:00,50.5,26.3,30.00,NNE,22,11.2,23.5,39,0.00,,,0.00,WUHU21623XXSP,2013-04-17 09:56:00,
2013-04-17 03:01:00,50.5,26.3,30.00,NNE,22,17.2,23.7,39,0.00,,,0.00,WUHU21623XXSP,2013-04-17 10:01:00,
2013-04-17 03:06:00,50.5,26.3,30.00,North,0,19.9,23.7,39,0.00,,,0.00,WUHU21623XXSP,2013-04-17 10:06:00,
2013-04-17 03:11:00,50.5,26.3,30.00,North,0,10.3,20.6,39,0.00,,,0.00,WUHU21623XXSP,2013-04-17 10:11:00,
2013-04-17 03:16:00,50.5,26.3,30.00,NNE,22,15.4,19.9,39,0.00,,,0.00,WUHU21623XXSP,2013-04-17 10:16:00,
2013-04-17 03:22:00,50.5,26.3,30.00,NNW,337,15.9,21.3,39,0.00,,,0.00,WUHU21623XXSP,2013-04-17 10:22:00,
2013-04-17 03:27:00,50.5,26.9,30.00,North,0,17.0,21.9,40,0.00,,,0.00,WUHU21623XXSP,2013-04-17 10:27:00,
2013-04-17 03:32:00,50.3,26.7,29.99,North,0,20.1,21.9,40,0.00,,,0.00,WUHU21623XXSP,2013-04-17 10:32:00,
2013-04-17 03:37:00,50.3,26.7,29.99,North,0,19.5,21.0,40,0.00,,,0.00,WUHU21623XXSP,2013-04-17 10:37:00,
2013-04-17 03:42:00,50.3,26.7,29.99,North,0,12.8,24.6,40,0.00,,,0.00,WUHU21623XXSP,2013-04-17 10:42:00,
2013-04-17 03:47:00,50.2,26.6,29.99,North,0,12.5,24.6,40,0.00,,,0.00,WUHU21623XXSP,2013-04-17 10:47:00,
2013-04-17 03:52:00,50.2,26.6,29.99,North,0,13.6,21.5,40,0.00,,,0.00,WUHU21623XXSP,2013-04-17 10:52:00,
2013-04-17 03:57:00,50.0,26.4,29.99,North,0,16.1,26.4,40,0.00,,,0.00,WUHU21623XXSP,2013-04-17 10:57:00,
2013-04-17 04:02:00,50.0,26.4,29.99,North,0,11.4,26.4,40,0.00,,,0.00,WUHU21623XXSP,2013-04-17 11:02:00,
2013-04-17 04:07:00,50.0,26.4,29.99,North,0,12.5,19.9,40,0.00,,,0.00,WUHU21623XXSP,2013-04-17 11:07:00,
2013-04-17 04:12:00,49.8,26.9,29.99,North,0,9.4,17.9,41,0.00,,,0.00,WUHU21623XXSP,2013-04-17 11:12:00,
2013-04-17 04:17:00,49.6,26.7,30.00,NNW,337,19.9,19.9,41,0.00,,,0.00,WUHU21623XXSP,2013-04-17 11:17:00,
2013-04-17 04:22:00,49.6,26.7,30.00,North,355,13.7,19.9,41,0.00,,,0.00,WUHU21623XXSP,2013-04-17 11:22:00,
2013-04-17 04:27:00,49.6,26.7,30.00,North,0,11.0,18.1,41,0.00,,,0.00,WUHU21623XXSP,2013-04-17 11:27:00,
2013-04-17 04:32:00,49.6,26.7,30.00,NNW,337,15.4,17.7,41,0.00,,,0.00,WUHU21623XXSP,2013-04-17 11:32:00,
2013-04-17 04:37:00,49.4,26.5,30.00,NNW,337,10.5,18.1,41,0.00,,,0.00,WUHU21623XXSP,2013-04-17 11:37:00,
2013-04-17 04:42:00,49.4,26.5,30.00,NNW,337,11.9,18.1,41,0.00,,,0.00,WUHU21623XXSP,2013-04-17 11:42:00,
2013-04-17 04:47:00,49.4,26.5,30.00,NNW,346,11.6,16.6,41,0.00,,,0.00,WUHU21623XXSP,2013-04-17 11:47:00,
2013-04-17 04:52:00,49.4,26.5,30.00,North,0,12.3,15.0,41,0.00,,,0.00,WUHU21623XXSP,2013-04-17 11:52:00,
2013-04-17 04:57:00,49.4,26.5,30.00,NNW,337,8.9,15.7,41,0.00,,,0.00,WUHU21623XXSP,2013-04-17 11:57:00,
2013-04-17 05:02:00,49.4,26.5,30.00,NNW,337,20.6,20.6,41,0.00,,,0.00,WUHU21623XXSP,2013-04-17 12:02:00,
2013-04-17 05:07:00,49.4,26.5,30.00,North,0,11.0,20.8,41,0.00,,,0.00,WUHU21623XXSP,2013-04-17 12:07:00,
2013-04-17 05:12:00,49.4,26.5,30.00,NNW,337,12.5,20.8,41,0.00,,,0.00,WUHU21623XXSP,2013-04-17 12:12:00,
2013-04-17 05:17:00,49.4,26.5,30.00,NNW,337,11.4,17.2,41,0.00,,,0.00,WUHU21623XXSP,2013-04-17 12:17:00,
2013-04-17 05:22:00,49.3,26.4,30.00,North,0,16.1,16.1,41,0.00,,,0.00,WUHU21623XXSP,2013-04-17 12:22:00,
2013-04-17 05:27:00,49.3,26.4,30.01,NNW,346,12.0,16.1,41,0.00,,,0.00,WUHU21623XXSP,2013-04-17 12:27:00,
2013-04-17 05:32:00,49.3,26.4,30.01,NNW,337,12.8,15.9,41,0.00,,,0.00,WUHU21623XXSP,2013-04-17 12:32:00,
2013-04-17 05:37:00,49.1,26.2,30.01,NW,315,11.0,15.9,41,0.00,,,0.00,WUHU21623XXSP,2013-04-17 12:37:00,
2013-04-17 05:42:00,49.1,26.2,30.02,NNW,337,8.9,17.0,41,0.00,,,0.00,WUHU21623XXSP,2013-04-17 12:42:00,
2013-04-17 05:47:00,49.1,26.2,30.02,NNW,337,6.0,17.0,41,0.00,,,0.00,WUHU21623XXSP,2013-04-17 12:47:00,
2013-04-17 05:52:00,48.9,26.0,30.02,NNW,337,8.3,16.1,41,0.00,,,0.00,WUHU21623XXSP,2013-04-17 12:52:00,
2013-04-17 05:57:00,48.9,26.0,30.02,NNW,337,10.1,16.3,41,0.00,,,0.00,WUHU21623XXSP,2013-04-17 12:57:00,
2013-04-17 06:02:00,48.7,25.9,30.02,NNW,337,5.1,16.3,41,0.00,,,0.00,WUHU21623XXSP,2013-04-17 13:02:00,
2013-04-17 06:07:00,48.7,25.9,30.02,NNW,337,6.7,17.4,41,0.00,,,0.00,WUHU21623XXSP,2013-04-17 13:07:00,
2013-04-17 06:12:00,48.7,25.9,30.02,North,0,10.3,17.4,41,0.00,,,0.00,WUHU21623XXSP,2013-04-17 13:12:00,
2013-04-17 06:17:00,48.7,25.9,30.02,NNW,342,9.2,17.4,41,0.00,,,0.00,WUHU21623XXSP,2013-04-17 13:17:00,
2013-04-17 06:22:00,48.7,25.9,30.03,NNW,337,6.3,11.4,41,0.00,,,0.00,WUHU21623XXSP,2013-04-17 13:22:00,
2013-04-17 06:27:00,48.7,25.9,30.03,NNW,337,5.4,10.1,41,0.00,,,0.00,WUHU21623XXSP,2013-04-17 13:27:00,
2013-04-17 06:32:00,48.7,25.9,30.03,NNW,337,8.9,15.7,41,0.00,,,0.00,WUHU21623XXSP,2013-04-17 13:32:00,
2013-04-17 06:37:00,48.5,25.7,30.03,NNW,337,10.5,15.7,41,0.00,,,0.00,WUHU21623XXSP,2013-04-17 13:37:00,
2013-04-17 06:42:00,48.5,25.7,30.03,NW,315,11.9,18.6,41,0.00,,,0.00,WUHU21623XXSP,2013-04-17 13:42:00,
2013-04-17 06:47:00,48.7,25.9,30.04,NNW,337,8.7,18.8,41,0.00,,,0.00,WUHU21623XXSP,2013-04-17 13:47:00,
2013-04-17 06:52:00,48.9,26.0,30.04,NNW,337,9.2,18.8,41,0.00,,,0.00,WUHU21623XXSP,2013-04-17 13:52:00,
2013-04-17 06:57:00,49.1,26.2,30.04,NNW,337,6.9,13.6,41,0.00,,,0.00,WUHU21623XXSP,2013-04-17 13:57:00,
2013-04-17 07:02:00,49.1,26.2,30.04,NNW,337,8.7,15.4,41,0.00,,,0.00,WUHU21623XXSP,2013-04-17 14:02:00,
2013-04-17 07:07:00,49.1,26.2,30.04,NNW,337,5.8,15.4,41,0.00,,,0.00,WUHU21623XXSP,2013-04-17 14:07:00,
2013-04-17 07:12:00,49.3,26.4,30.05,NNW,337,12.5,13.2,41,0.00,,,0.00,WUHU21623XXSP,2013-04-17 14:12:00,
2013-04-17 07:17:00,49.4,26.5,30.05,NNW,337,12.1,13.4,41,0.00,,,0.00,WUHU21623XXSP,2013-04-17 14:17:00,
2013-04-17 07:22:00,49.4,26.5,30.05,North,0,6.3,13.4,41,0.00,,,0.00,WUHU21623XXSP,2013-04-17 14:22:00,
2013-04-17 07:27:00,49.6,26.7,30.06,North,0,6.0,12.3,41,0.00,,,0.00,WUHU21623XXSP,2013-04-17 14:27:00,
2013-04-17 07:32:00,49.8,27.5,30.06,North,0,4.9,11.0,42,0.00,,,0.00,WUHU21623XXSP,2013-04-17 14:32:00,
2013-04-17 07:37:00,50.2,27.2,30.06,NNW,337,13.0,16.1,41,0.00,,,0.00,WUHU21623XXSP,2013-04-17 14:37:00,
2013-04-17 07:42:00,50.3,27.3,30.06,North,0,15.7,16.1,41,0.00,,,0.00,WUHU21623XXSP,2013-04-17 14:42:00,
2013-04-17 07:47:00,50.5,27.5,30.06,NNW,337,16.6,17.0,41,0.00,,,0.00,WUHU21623XXSP,2013-04-17 14:47:00,
2013-04-17 07:52:00,50.9,27.9,30.07,North,0,9.4,17.0,41,0.00,,,0.00,WUHU21623XXSP,2013-04-17 14:52:00,
2013-04-17 07:57:00,50.9,27.2,30.07,North,0,9.8,15.2,40,0.00,,,0.00,WUHU21623XXSP,2013-04-17 14:57:00,
2013-04-17 08:02:00,51.2,27.5,30.07,North,0,7.8,13.6,40,0.00,,,0.00,WUHU21623XXSP,2013-04-17 15:02:00,
2013-04-17 08:07:00,51.4,27.7,30.07,NNW,337,17.0,20.8,40,0.00,,,0.00,WUHU21623XXSP,2013-04-17 15:07:00,
2013-04-17 08:12:00,51.8,27.4,30.07,NNW,337,20.4,22.1,39,0.00,,,0.00,WUHU21623XXSP,2013-04-17 15:12:00,
2013-04-17 08:17:00,52.0,27.6,30.07,NNE,22,9.6,22.1,39,0.00,,,0.00,WUHU21623XXSP,2013-04-17 15:17:00,
2013-04-17 08:22:00,52.3,27.9,30.07,NNW,337,12.1,18.3,39,0.00,,,0.00,WUHU21623XXSP,2013-04-17 15:22:00,
2013-04-17 08:27:00,52.5,28.1,30.08,NNW,348,13.8,19.0,39,0.00,,,0.00,WUHU21623XXSP,2013-04-17 15:27:00,
2013-04-17 08:32:00,52.7,28.2,30.08,NNW,337,14.8,19.0,39,0.00,,,0.00,WUHU21623XXSP,2013-04-17 15:32:00,
2013-04-17 08:37:00,53.0,28.5,30.08,North,0,12.3,20.8,39,0.00,,,0.00,WUHU21623XXSP,2013-04-17 15:37:00,
2013-04-17 08:42:00,53.2,28.7,30.08,NNW,337,15.4,20.8,39,0.00,,,0.00,WUHU21623XXSP,2013-04-17 15:42:00,
2013-04-17 08:47:00,53.8,28.6,30.08,NNW,337,18.6,18.6,38,0.00,,,0.00,WUHU21623XXSP,2013-04-17 15:47:00,
2013-04-17 08:52:00,54.1,28.8,30.09,NNW,337,15.4,22.1,38,0.00,,,0.00,WUHU21623XXSP,2013-04-17 15:52:00,
2013-04-17 08:57:00,54.5,29.2,30.09,NNW,337,22.8,22.8,38,0.00,,,0.00,WUHU21623XXSP,2013-04-17 15:57:00,
2013-04-17 09:02:00,54.8,28.8,30.08,NNW,337,18.3,26.2,37,0.00,,,0.00,WUHU21623XXSP,2013-04-17 16:02:00,
2013-04-17 09:07:00,55.0,29.0,30.08,NNW,337,18.6,26.6,37,0.00,,,0.00,WUHU21623XXSP,2013-04-17 16:07:00,
2013-04-17 09:12:00,55.0,29.0,30.09,NNW,337,17.7,26.6,37,0.00,,,0.00,WUHU21623XXSP,2013-04-17 16:12:00,
2013-04-17 09:17:00,55.2,28.5,30.08,North,0,17.2,27.5,36,0.00,,,0.00,WUHU21623XXSP,2013-04-17 16:17:00,
2013-04-17 09:22:00,55.4,28.7,30.08,NNW,338,18.6,27.5,36,0.00,,,0.00,WUHU21623XXSP,2013-04-17 16:22:00,
2013-04-17 09:27:00,55.7,28.9,30.08,NNW,337,20.4,25.7,36,0.00,,,0.00,WUHU21623XXSP,2013-04-17 16:27:00,
2013-04-17 09:32:00,55.9,29.1,30.09,NNW,337,20.1,26.4,36,0.00,,,0.00,WUHU21623XXSP,2013-04-17 16:32:00,
2013-04-17 09:37:00,56.3,29.5,30.09,NNW,337,24.8,26.8,36,0.00,,,0.00,WUHU21623XXSP,2013-04-17 16:37:00,
2013-04-17 09:42:00,56.6,29.0,30.09,NNW,338,20.6,26.8,35,0.00,,,0.00,WUHU21623XXSP,2013-04-17 16:42:00,
2013-04-17 09:47:00,56.8,29.2,30.09,NNW,337,18.1,25.3,35,0.00,,,0.00,WUHU21623XXSP,2013-04-17 16:47:00,
2013-04-17 09:52:00,56.8,29.2,30.09,NNW,337,27.1,33.1,35,0.00,,,0.00,WUHU21623XXSP,2013-04-17 16:52:00,
2013-04-17 09:57:00,57.0,29.4,30.09,NNW,337,20.6,33.1,35,0.00,,,0.00,WUHU21623XXSP,2013-04-17 16:57:00,
2013-04-17 10:02:00,57.4,29.0,30.09,NNW,337,22.4,32.0,34,0.00,,,0.00,WUHU21623XXSP,2013-04-17 17:02:00,
2013-04-17 10:07:00,57.7,30.0,30.09,NNW,346,19.7,26.6,35,0.00,,,0.00,WUHU21623XXSP,2013-04-17 17:07:00,
2013-04-17 10:12:00,58.1,30.4,30.09,NNW,337,20.4,26.8,35,0.00,,,0.00,WUHU21623XXSP,2013-04-17 17:12:00,
2013-04-17 10:17:00,58.4,29.9,30.09,NW,315,21.3,27.7,34,0.00,,,0.00,WUHU21623XXSP,2013-04-17 17:17:00,
2013-04-17 10:22:00,58.6,30.1,30.10,NNW,337,19.9,29.5,34,0.00,,,0.00,WUHU21623XXSP,2013-04-17 17:22:00,
2013-04-17 10:27:00,58.8,30.3,30.10,North,0,21.5,29.5,34,0.00,,,0.00,WUHU21623XXSP,2013-04-17 17:27:00,
2013-04-17 10:32:00,59.0,29.7,30.10,North,0,17.9,29.3,33,0.00,,,0.00,WUHU21623XXSP,2013-04-17 17:32:00,
2013-04-17 10:37:00,59.2,29.9,30.10,North,358,20.8,29.3,33,0.00,,,0.00,WUHU21623XXSP,2013-04-17 17:37:00,
2013-04-17 10:42:00,59.3,30.0,30.10,NNE,22,28.9,28.9,33,0.00,,,0.00,WUHU21623XXSP,2013-04-17 17:42:00,
2013-04-17 10:47:00,59.3,29.2,30.10,North,0,18.8,32.2,32,0.00,,,0.00,WUHU21623XXSP,2013-04-17 17:47:00,
2013-04-17 10:52:00,59.5,29.4,30.10,North,0,24.4,32.2,32,0.00,,,0.00,WUHU21623XXSP,2013-04-17 17:52:00,
2013-04-17 10:57:00,59.7,29.6,30.10,NW,315,21.9,25.7,32,0.00,,,0.00,WUHU21623XXSP,2013-04-17 17:57:00,
2013-04-17 11:02:00,59.9,29.7,30.10,North,0,17.9,30.9,32,0.00,,,0.00,WUHU21623XXSP,2013-04-17 18:02:00,
2013-04-17 11:07:00,60.2,30.0,30.10,North,0,19.5,30.9,32,0.00,,,0.00,WUHU21623XXSP,2013-04-17 18:07:00,
2013-04-17 11:12:00,60.4,30.2,30.10,North,0,26.6,33.1,32,0.00,,,0.00,WUHU21623XXSP,2013-04-17 18:12:00,
2013-04-17 11:17:00,60.4,30.2,30.10,North,0,20.8,33.1,32,0.00,,,0.00,WUHU21623XXSP,2013-04-17 18:17:00,
2013-04-17 11:22:00,60.8,30.5,30.11,NNW,337,16.6,28.9,32,0.00,,,0.00,WUHU21623XXSP,2013-04-17 18:22:00,
2013-04-17 11:27:00,61.0,29.9,30.11,North,0,22.6,28.9,31,0.00,,,0.00,WUHU21623XXSP,2013-04-17 18:27:00,
2013-04-17 11:32:00,61.1,30.0,30.10,NNW,337,17.4,27.7,31,0.00,,,0.00,WUHU21623XXSP,2013-04-17 18:32:00,
2013-04-17 11:37:00,61.3,30.2,30.10,NNE,22,18.6,27.7,31,0.00,,,0.00,WUHU21623XXSP,2013-04-17 18:37:00,
2013-04-17 11:42:00,61.5,30.4,30.10,North,0,15.9,24.2,31,0.00,,,0.00,WUHU21623XXSP,2013-04-17 18:42:00,
2013-04-17 11:47:00,61.7,30.5,30.10,NNW,337,19.2,29.1,31,0.00,,,0.00,WUHU21623XXSP,2013-04-17 18:47:00,
2013-04-17 11:52:00,61.7,30.5,30.10,NNE,22,19.9,32.0,31,0.00,,,0.00,WUHU21623XXSP,2013-04-17 18:52:00,
2013-04-17 11:57:00,62.0,30.0,30.10,NNW,337,17.2,32.0,30,0.00,,,0.00,WUHU21623XXSP,2013-04-17 18:57:00,
2013-04-17 12:02:00,62.0,30.0,30.10,NNW,337,21.9,26.4,30,0.00,,,0.00,WUHU21623XXSP,2013-04-17 19:02:00,
2013-04-17 12:07:00,62.2,29.3,30.10,North,0,22.1,26.8,29,0.00,,,0.00,WUHU21623XXSP,2013-04-17 19:07:00,
2013-04-17 12:12:00,62.2,29.3,30.10,North,0,19.9,27.1,29,0.00,,,0.00,WUHU21623XXSP,2013-04-17 19:12:00,
2013-04-17 12:17:00,62.4,29.5,30.10,NNW,337,22.6,29.8,29,0.00,,,0.00,WUHU21623XXSP,2013-04-17 19:17:00,
2013-04-17 12:22:00,62.6,29.7,30.10,North,0,15.4,29.8,29,0.00,,,0.00,WUHU21623XXSP,2013-04-17 19:22:00,
2013-04-17 12:27:00,62.8,29.9,30.10,NW,315,13.4,26.2,29,0.00,,,0.00,WUHU21623XXSP,2013-04-17 19:27:00,
2013-04-17 12:32:00,62.8,29.0,30.10,North,0,22.4,26.2,28,0.00,,,0.00,WUHU21623XXSP,2013-04-17 19:32:00,
2013-04-17 12:37:00,62.9,29.1,30.10,North,0,20.1,26.6,28,0.00,,,0.00,WUHU21623XXSP,2013-04-17 19:37:00,
2013-04-17 12:42:00,62.9,28.2,30.10,NNW,337,22.8,26.6,27,0.00,,,0.00,WUHU21623XXSP,2013-04-17 19:42:00,
2013-04-17 12:47:00,63.1,28.4,30.10,NNW,337,18.6,32.2,27,0.00,,,0.00,WUHU21623XXSP,2013-04-17 19:47:00,
2013-04-17 12:52:00,63.1,28.4,30.09,NNE,22,23.3,32.2,27,0.00,,,0.00,WUHU21623XXSP,2013-04-17 19:52:00,
2013-04-17 12:57:00,63.3,28.6,30.09,North,0,21.3,28.9,27,0.00,,,0.00,WUHU21623XXSP,2013-04-17 19:57:00,
2013-04-17 13:02:00,63.5,28.7,30.09,NNE,22,25.3,28.9,27,0.00,,,0.00,WUHU21623XXSP,2013-04-17 20:02:00,
2013-04-17 13:07:00,63.8,29.0,30.09,North,0,21.0,31.1,27,0.00,,,0.00,WUHU21623XXSP,2013-04-17 20:07:00,
2013-04-17 13:12:00,64.0,29.2,30.09,NNW,337,23.9,31.1,27,0.00,,,0.00,WUHU21623XXSP,2013-04-17 20:12:00,
2013-04-17 13:17:00,64.0,29.2,30.09,North,0,16.1,27.1,27,0.00,,,0.00,WUHU21623XXSP,2013-04-17 20:17:00,
2013-04-17 13:22:00,64.0,28.3,30.09,NNW,337,26.4,27.5,26,0.00,,,0.00,WUHU21623XXSP,2013-04-17 20:22:00,
2013-04-17 13:27:00,64.0,28.3,30.09,North,0,14.8,27.5,26,0.00,,,0.00,WUHU21623XXSP,2013-04-17 20:27:00,
2013-04-17 13:32:00,64.0,28.3,30.09,North,0,25.7,31.3,26,0.00,,,0.00,WUHU21623XXSP,2013-04-17 20:32:00,
2013-04-17 13:37:00,64.0,28.3,30.09,NNW,337,18.1,31.3,26,0.00,,,0.00,WUHU21623XXSP,2013-04-17 20:37:00,
2013-04-17 13:42:00,64.2,28.4,30.08,North,1,21.4,27.3,26,0.00,,,0.00,WUHU21623XXSP,2013-04-17 20:42:00,
2013-04-17 13:47:00,64.2,27.5,30.08,North,0,22.4,29.1,25,0.00,,,0.00,WUHU21623XXSP,2013-04-17 20:47:00,
2013-04-17 13:52:00,64.4,28.6,30.08,NNW,337,20.8,29.1,26,0.00,,,0.00,WUHU21623XXSP,2013-04-17 20:52:00,
2013-04-17 13:57:00,64.6,28.8,30.08,NNW,337,14.8,29.5,26,0.00,,,0.00,WUHU21623XXSP,2013-04-17 20:57:00,
2013-04-17 14:02:00,64.7,28.9,30.08,North,0,22.6,30.9,26,0.00,,,0.00,WUHU21623XXSP,2013-04-17 21:02:00,
2013-04-17 14:07:00,64.9,28.1,30.08,North,0,26.4,30.9,25,0.00,,,0.00,WUHU21623XXSP,2013-04-17 21:07:00,
2013-04-17 14:12:00,64.9,28.1,30.08,NNW,337,21.0,26.4,25,0.00,,,0.00,WUHU21623XXSP,2013-04-17 21:12:00,
2013-04-17 14:17:00,65.1,28.3,30.08,NNE,22,27.5,29.8,25,0.00,,,0.00,WUHU21623XXSP,2013-04-17 21:17:00,
2013-04-17 14:22:00,65.3,29.4,30.07,North,0,19.2,29.8,26,0.00,,,0.00,WUHU21623XXSP,2013-04-17 21:22:00,
2013-04-17 14:27:00,65.5,29.5,30.08,NNW,337,24.6,30.6,26,0.00,,,0.00,WUHU21623XXSP,2013-04-17 21:27:00,
2013-04-17 14:32:00,65.6,28.7,30.08,NNW,337,22.4,30.6,25,0.00,,,0.00,WUHU21623XXSP,2013-04-17 21:32:00,
2013-04-17 14:37:00,65.6,28.7,30.07,North,0,26.2,32.9,25,0.00,,,0.00,WUHU21623XXSP,2013-04-17 21:37:00,
2013-04-17 14:42:00,65.8,28.9,30.07,North,0,13.6,32.9,25,0.00,,,0.00,WUHU21623XXSP,2013-04-17 21:42:00,
2013-04-17 14:47:00,65.8,28.9,30.07,NNW,337,24.6,27.1,25,0.00,,,0.00,WUHU21623XXSP,2013-04-17 21:47:00,
2013-04-17 14:52:00,66.4,29.4,30.07,NNW,337,21.0,27.1,25,0.00,,,0.00,WUHU21623XXSP,2013-04-17 21:52:00,
2013-04-17 14:57:00,66.4,29.4,30.07,North,0,23.9,23.9,25,0.00,,,0.00,WUHU21623XXSP,2013-04-17 21:57:00,
2013-04-17 15:02:00,66.4,29.4,30.07,NNW,337,21.7,25.7,25,0.00,,,0.00,WUHU21623XXSP,2013-04-17 22:02:00,
2013-04-17 15:07:00,66.4,29.4,30.07,North,0,11.2,25.7,25,0.00,,,0.00,WUHU21623XXSP,2013-04-17 22:07:00,
2013-04-17 15:12:00,66.5,29.4,30.07,NNW,342,17.7,26.4,25,0.00,,,0.00,WUHU21623XXSP,2013-04-17 22:12:00,
2013-04-17 15:17:00,66.7,29.6,30.06,NNW,337,22.1,29.8,25,0.00,,,0.00,WUHU21623XXSP,2013-04-17 22:17:00,
2013-04-17 15:22:00,66.7,29.6,30.06,North,0,20.1,29.8,25,0.00,,,0.00,WUHU21623XXSP,2013-04-17 22:22:00,
2013-04-17 15:27:00,66.7,29.6,30.06,North,0,15.9,21.0,25,0.00,,,0.00,WUHU21623XXSP,2013-04-17 22:27:00,
2013-04-17 15:32:00,66.9,29.8,30.06,North,0,16.3,24.2,25,0.00,,,0.00,WUHU21623XXSP,2013-04-17 22:32:00,
2013-04-17 15:37:00,67.4,30.2,30.06,NNW,337,15.0,24.2,25,0.00,,,0.00,WUHU21623XXSP,2013-04-17 22:37:00,
2013-04-17 15:42:00,67.4,29.2,30.06,North,0,22.6,26.4,24,0.00,,,0.00,WUHU21623XXSP,2013-04-17 22:42:00,
2013-04-17 15:47:00,67.4,29.2,30.05,NNW,337,20.1,26.4,24,0.00,,,0.00,WUHU21623XXSP,2013-04-17 22:47:00,
2013-04-17 15:52:00,67.4,29.2,30.05,NNW,337,19.7,25.7,24,0.00,,,0.00,WUHU21623XXSP,2013-04-17 22:52:00,
2013-04-17 15:57:00,67.6,29.4,30.05,NNW,337,18.1,25.7,24,0.00,,,0.00,WUHU21623XXSP,2013-04-17 22:57:00,
2013-04-17 16:02:00,67.4,29.2,30.05,NW,315,15.2,24.6,24,0.00,,,0.00,WUHU21623XXSP,2013-04-17 23:02:00,
2013-04-17 16:07:00,67.6,29.4,30.05,North,0,11.9,24.6,24,0.00,,,0.00,WUHU21623XXSP,2013-04-17 23:07:00,
2013-04-17 16:12:00,67.6,29.4,30.05,NNW,337,17.4,24.6,24,0.00,,,0.00,WUHU21623XXSP,2013-04-17 23:12:00,
2013-04-17 16:17:00,67.6,29.4,30.05,NNW,337,15.2,22.8,24,0.00,,,0.00,WUHU21623XXSP,2013-04-17 23:17:00,
2013-04-17 16:22:00,68.0,30.7,30.05,North,0,22.4,26.8,25,0.00,,,0.00,WUHU21623XXSP,2013-04-17 23:22:00,
2013-04-17 16:27:00,68.2,29.9,30.05,North,0,16.8,26.8,24,0.00,,,0.00,WUHU21623XXSP,2013-04-17 23:27:00,
2013-04-17 16:32:00,68.0,29.7,30.05,NNW,337,16.6,26.6,24,0.00,,,0.00,WUHU21623XXSP,2013-04-17 23:32:00,
2013-04-17 16:37:00,67.8,29.6,30.04,NNW,337,18.1,21.9,24,0.00,,,0.00,WUHU21623XXSP,2013-04-17 23:37:00,
2013-04-17 16:42:00,67.8,29.6,30.04,North,0,18.3,23.0,24,0.00,,,0.00,WUHU21623XXSP,2013-04-17 23:42:00,
2013-04-17 16:47:00,67.8,29.6,30.04,NNW,337,21.3,23.0,24,0.00,,,0.00,WUHU21623XXSP,2013-04-17 23:47:00,
2013-04-17 16:52:00,67.8,29.6,30.04,North,0,11.0,21.9,24,0.00,,,0.00,WUHU21623XXSP,2013-04-17 23:52:00,
2013-04-17 16:57:00,67.6,29.4,30.04,NNW,337,18.8,25.9,24,0.00,,,0.00,WUHU21623XXSP,2013-04-17 23:57:00,
2013-04-17 17:02:00,67.6,29.4,30.04,North,0,15.7,25.9,24,0.00,,,0.00,WUHU21623XXSP,2013-04-18 00:02:00,
2013-04-17 17:07:00,67.6,29.4,30.04,NNW,337,13.0,23.0,24,0.00,,,0.00,WUHU21623XXSP,2013-04-18 00:07:00,
2013-04-17 17:12:00,67.6,29.4,30.03,NNW,337,19.2,24.2,24,0.00,,,0.00,WUHU21623XXSP,2013-04-18 00:12:00,
2013-04-17 17:17:00,67.6,29.4,30.03,NNW,337,11.2,24.2,24,0.00,,,0.00,WUHU21623XXSP,2013-04-18 00:17:00,
2013-04-17 17:22:00,67.6,29.4,30.03,NNW,337,15.0,22.1,24,0.00,,,0.00,WUHU21623XXSP,2013-04-18 00:22:00,
2013-04-17 17:27:00,67.6,29.4,30.03,NNW,337,16.6,22.1,24,0.00,,,0.00,WUHU21623XXSP,2013-04-18 00:27:00,
2013-04-17 17:32:00,67.8,29.6,30.03,NNW,337,13.4,21.5,24,0.00,,,0.00,WUHU21623XXSP,2013-04-18 00:32:00,
2013-04-17 17:37:00,67.6,29.4,30.04,North,0,21.9,23.0,24,0.00,,,0.00,WUHU21623XXSP,2013-04-18 00:37:00,
2013-04-17 17:42:00,67.6,29.4,30.03,NNW,337,12.5,23.0,24,0.00,,,0.00,WUHU21623XXSP,2013-04-18 00:42:00,
2013-04-17 17:47:00,67.4,29.2,30.03,NNW,337,15.7,23.3,24,0.00,,,0.00,WUHU21623XXSP,2013-04-18 00:47:00,
2013-04-17 17:52:00,67.3,29.1,30.04,NNW,337,10.5,23.3,24,0.00,,,0.00,WUHU21623XXSP,2013-04-18 00:52:00,
2013-04-17 17:57:00,67.1,29.0,30.03,NNW,339,15.8,21.9,24,0.00,,,0.00,WUHU21623XXSP,2013-04-18 00:57:00,
2013-04-17 18:02:00,67.1,29.0,30.03,NNW,337,15.4,23.9,24,0.00,,,0.00,WUHU21623XXSP,2013-04-18 01:02:00,
2013-04-17 18:07:00,67.1,29.0,30.04,NNW,343,16.6,23.9,24,0.00,,,0.00,WUHU21623XXSP,2013-04-18 01:07:00,
2013-04-17 18:12:00,66.9,28.8,30.03,NNW,337,12.5,23.3,24,0.00,,,0.00,WUHU21623XXSP,2013-04-18 01:12:00,
2013-04-17 18:17:00,66.7,28.6,30.03,North,0,13.0,20.4,24,0.00,,,0.00,WUHU21623XXSP,2013-04-18 01:17:00,
2013-04-17 18:22:00,66.5,28.5,30.03,NNW,337,11.0,20.4,24,0.00,,,0.00,WUHU21623XXSP,2013-04-18 01:22:00,
2013-04-17 18:27:00,66.4,28.4,30.03,NNW,337,11.9,19.5,24,0.00,,,0.00,WUHU21623XXSP,2013-04-18 01:27:00,
2013-04-17 18:32:00,66.2,28.2,30.03,NNW,337,12.8,19.5,24,0.00,,,0.00,WUHU21623XXSP,2013-04-18 01:32:00,
2013-04-17 18:37:00,66.2,28.2,30.03,NNW,337,9.6,16.3,24,0.00,,,0.00,WUHU21623XXSP,2013-04-18 01:37:00,
2013-04-17 18:42:00,65.8,27.9,30.04,NNW,337,10.1,16.3,24,0.00,,,0.00,WUHU21623XXSP,2013-04-18 01:42:00,
2013-04-17 18:47:00,65.8,28.9,30.04,NNW,337,6.0,13.6,25,0.00,,,0.00,WUHU21623XXSP,2013-04-18 01:47:00,
2013-04-17 18:52:00,66.0,29.0,30.04,NNW,337,7.4,13.6,25,0.00,,,0.00,WUHU21623XXSP,2013-04-18 01:52:00,
2013-04-17 18:57:00,66.2,29.2,30.04,NNW,337,6.9,13.0,25,0.00,,,0.00,WUHU21623XXSP,2013-04-18 01:57:00,
2013-04-17 19:02:00,65.8,28.9,30.04,North,0,10.5,13.0,25,0.00,,,0.00,WUHU21623XXSP,2013-04-18 02:02:00,
2013-04-17 19:07:00,65.6,28.7,30.04,NNW,337,6.0,15.0,25,0.00,,,0.00,WUHU21623XXSP,2013-04-18 02:07:00,
2013-04-17 19:12:00,65.6,29.6,30.04,WNW,292,0.0,15.0,26,0.00,,,0.00,WUHU21623XXSP,2013-04-18 02:12:00,
2013-04-17 19:17:00,65.6,29.6,30.04,NNW,337,8.7,12.3,26,0.00,,,0.00,WUHU21623XXSP,2013-04-18 02:17:00,
2013-04-17 19:22:00,65.8,29.8,30.04,NNW,337,0.0,12.1,26,0.00,,,0.00,WUHU21623XXSP,2013-04-18 02:22:00,
2013-04-17 19:27:00,65.8,29.8,30.04,North,0,0.0,6.9,26,0.00,,,0.00,WUHU21623XXSP,2013-04-18 02:27:00,
2013-04-17 19:32:00,65.6,29.6,30.04,NNW,337,0.0,0.0,26,0.00,,,0.00,WUHU21623XXSP,2013-04-18 02:32:00,
2013-04-17 19:37:00,65.5,30.5,30.04,West,270,0.0,0.0,27,0.00,,,0.00,WUHU21623XXSP,2013-04-18 02:37:00,
2013-04-17 19:42:00,64.9,29.9,30.04,WSW,247,4.9,4.9,27,0.00,,,0.00,WUHU21623XXSP,2013-04-18 02:42:00,
2013-04-17 19:47:00,64.6,29.7,30.04,West,270,4.9,6.3,27,0.00,,,0.00,WUHU21623XXSP,2013-04-18 02:47:00,
2013-04-17 19:52:00,64.0,29.2,30.04,WNW,292,0.0,7.6,27,0.00,,,0.00,WUHU21623XXSP,2013-04-18 02:52:00,
2013-04-17 19:57:00,63.7,28.9,30.04,WSW,247,0.0,7.6,27,0.00,,,0.00,WUHU21623XXSP,2013-04-18 02:57:00,
2013-04-17 20:02:00,63.5,28.7,30.04,West,270,0.0,6.9,27,0.00,,,0.00,WUHU21623XXSP,2013-04-18 03:02:00,
2013-04-17 20:07:00,63.5,28.7,30.04,NNW,337,3.4,6.9,27,0.00,,,0.00,WUHU21623XXSP,2013-04-18 03:07:00,
2013-04-17 20:12:00,63.1,28.4,30.04,West,270,0.0,8.1,27,0.00,,,0.00,WUHU21623XXSP,2013-04-18 03:12:00,
2013-04-17 20:17:00,62.6,28.8,30.05,NNW,337,0.0,8.7,28,0.00,,,0.00,WUHU21623XXSP,2013-04-18 03:17:00,
2013-04-17 20:22:00,62.0,28.3,30.05,WNW,292,0.0,13.4,28,0.00,,,0.00,WUHU21623XXSP,2013-04-18 03:22:00,
2013-04-17 20:27:00,61.7,28.1,30.05,NW,315,0.0,13.4,28,0.00,,,0.00,WUHU21623XXSP,2013-04-18 03:27:00,
2013-04-17 20:32:00,61.1,27.5,30.05,NNW,337,0.0,6.5,28,0.00,,,0.00,WUHU21623XXSP,2013-04-18 03:32:00,
2013-04-17 20:37:00,60.8,27.3,30.05,NNW,337,0.0,0.0,28,0.00,,,0.00,WUHU21623XXSP,2013-04-18 03:37:00,
2013-04-17 20:42:00,60.2,26.8,30.05,NNW,337,0.0,0.0,28,0.00,,,0.00,WUHU21623XXSP,2013-04-18 03:42:00,
2013-04-17 20:47:00,59.9,27.3,30.05,NNW,337,0.0,0.0,29,0.00,,,0.00,WUHU21623XXSP,2013-04-18 03:47:00,
2013-04-17 20:52:00,59.7,27.2,30.05,NNW,337,0.0,0.0,29,0.00,,,0.00,WUHU21623XXSP,2013-04-18 03:52:00,
2013-04-17 20:57:00,59.5,27.0,30.05,NNW,337,0.0,0.0,29,0.00,,,0.00,WUHU21623XXSP,2013-04-18 03:57:00,
2013-04-17 21:01:00,59.2,26.7,30.05,NNW,337,0.0,0.0,29,0.00,,,0.00,WUHU21623XXSP,2013-04-18 04:01:00,
2013-04-17 21:06:00,58.6,26.2,30.05,North,0,0.0,0.0,29,0.00,,,0.00,WUHU21623XXSP,2013-04-18 04:06:00,
2013-04-17 21:11:00,58.3,26.8,30.06,NNE,22,0.0,0.0,30,0.00,,,0.00,WUHU21623XXSP,2013-04-18 04:11:00,
2013-04-17 21:17:00,57.9,26.4,30.06,NNE,22,0.0,0.0,30,0.00,,,0.00,WUHU21623XXSP,2013-04-18 04:17:00,
2013-04-17 21:22:00,57.4,26.0,30.06,NNE,22,0.0,0.0,30,0.00,,,0.00,WUHU21623XXSP,2013-04-18 04:22:00,
2013-04-17 21:27:00,56.8,25.5,30.06,NNE,22,0.0,0.0,30,0.00,,,0.00,WUHU21623XXSP,2013-04-18 04:27:00,
2013-04-17 21:32:00,56.6,26.1,30.07,West,270,0.0,0.0,31,0.00,,,0.00,WUHU21623XXSP,2013-04-18 04:32:00,
2013-04-17 21:37:00,56.3,25.8,30.06,North,0,0.0,0.0,31,0.00,,,0.00,WUHU21623XXSP,2013-04-18 04:37:00,
2013-04-17 21:42:00,56.3,25.8,30.07,North,0,0.0,0.0,31,0.00,,,0.00,WUHU21623XXSP,2013-04-18 04:42:00,
2013-04-17 21:47:00,55.9,25.5,30.07,NNW,337,0.0,0.0,31,0.00,,,0.00,WUHU21623XXSP,2013-04-18 04:47:00,
2013-04-17 21:52:00,55.6,25.2,30.07,SW,225,0.0,0.0,31,0.00,,,0.00,WUHU21623XXSP,2013-04-18 04:52:00,
2013-04-17 21:57:00,55.0,24.7,30.07,SW,225,0.0,0.0,31,0.00,,,0.00,WUHU21623XXSP,2013-04-18 04:57:00,
2013-04-17 22:02:00,54.5,25.0,30.07,SW,225,0.0,0.0,32,0.00,,,0.00,WUHU21623XXSP,2013-04-18 05:02:00,
2013-04-17 22:07:00,54.5,25.0,30.07,SW,225,0.0,0.0,32,0.00,,,0.00,WUHU21623XXSP,2013-04-18 05:07:00,
2013-04-17 22:12:00,54.1,24.6,30.07,SW,225,0.0,0.0,32,0.00,,,0.00,WUHU21623XXSP,2013-04-18 05:12:00,
2013-04-17 22:17:00,53.9,24.5,30.07,SW,225,0.0,0.0,32,0.00,,,0.00,WUHU21623XXSP,2013-04-18 05:17:00,
2013-04-17 22:22:00,53.6,24.2,30.07,SW,225,0.0,0.0,32,0.00,,,0.00,WUHU21623XXSP,2013-04-18 05:22:00,
2013-04-17 22:27:00,53.2,23.9,30.07,East,90,0.0,0.0,32,0.00,,,0.00,WUHU21623XXSP,2013-04-18 05:27:00,
2013-04-17 22:32:00,53.2,23.9,30.07,East,90,0.0,0.0,32,0.00,,,0.00,WUHU21623XXSP,2013-04-18 05:32:00,
2013-04-17 22:37:00,53.6,24.2,30.07,South,180,0.0,0.0,32,0.00,,,0.00,WUHU21623XXSP,2013-04-18 05:37:00,
2013-04-17 22:42:00,53.4,24.0,30.07,SW,225,0.0,0.0,32,0.00,,,0.00,WUHU21623XXSP,2013-04-18 05:42:00,
2013-04-17 22:47:00,53.0,24.4,30.07,SW,225,0.0,0.0,33,0.00,,,0.00,WUHU21623XXSP,2013-04-18 05:47:00,
2013-04-17 22:52:00,52.5,24.0,30.07,SW,225,0.0,0.0,33,0.00,,,0.00,WUHU21623XXSP,2013-04-18 05:52:00,
2013-04-17 22:57:00,52.3,23.8,30.06,SW,225,0.0,0.0,33,0.00,,,0.00,WUHU21623XXSP,2013-04-18 05:57:00,
2013-04-17 23:02:00,52.3,23.8,30.06,SW,225,0.0,0.0,33,0.00,,,0.00,WUHU21623XXSP,2013-04-18 06:02:00,
2013-04-17 23:07:00,51.8,24.1,30.06,SW,225,0.0,0.0,34,0.00,,,0.00,WUHU21623XXSP,2013-04-18 06:07:00,
2013-04-17 23:12:00,51.4,23.7,30.06,SW,225,0.0,0.0,34,0.00,,,0.00,WUHU21623XXSP,2013-04-18 06:12:00,
2013-04-17 23:17:00,51.2,24.2,30.06,SW,225,0.0,0.0,35,0.00,,,0.00,WUHU21623XXSP,2013-04-18 06:17:00,
2013-04-17 23:22:00,50.9,24.0,30.06,SW,225,0.0,0.0,35,0.00,,,0.00,WUHU21623XXSP,2013-04-18 06:22:00,
2013-04-17 23:27:00,50.5,23.6,30.06,SW,225,0.0,0.0,35,0.00,,,0.00,WUHU21623XXSP,2013-04-18 06:27:00,
2013-04-17 23:32:00,50.3,24.1,30.06,WNW,292,0.0,0.0,36,0.00,,,0.00,WUHU21623XXSP,2013-04-18 06:32:00,
2013-04-17 23:37:00,49.8,23.7,30.06,WNW,292,0.0,0.0,36,0.00,,,0.00,WUHU21623XXSP,2013-04-18 06:37:00,
2013-04-17 23:42:00,49.4,23.3,30.06,WNW,292,0.0,0.0,36,0.00,,,0.00,WUHU21623XXSP,2013-04-18 06:42:00,
2013-04-17 23:47:00,49.1,23.7,30.06,NW,315,0.0,1.1,37,0.00,,,0.00,WUHU21623XXSP,2013-04-18 06:47:00,
2013-04-17 23:52:00,48.7,23.4,30.06,NNW,337,0.0,1.1,37,0.00,,,0.00,WUHU21623XXSP,2013-04-18 06:52:00,
2013-04-17 23:57:00,48.7,23.4,30.05,NNW,337,0.0,0.0,37,0.00,,,0.00,WUHU21623XXSP,2013-04-18 06:57:00,